SUCHAI (42788 NORAD) Tracking and Keplerian Element Data

This shows tracking and keplerian element data for the satellite.

Feedback or suggestion? Click here.




ElementValue
Catalog42788
NameSUCHAI
Epoch Orbit7728
Epoch Day317.36725328
Epoch Year2018
RAAN14.7471
Inclination97.3836
Eccentricity0.001017
Argument of Perigee273.4778
Mean Anonmoly86.5295
Mean Motion15.22331531
Decay Rate1.444E-05
L11 42788U 17036Z 18317.36725328 .00001444 00000-0 65616-4 0 9993
L22 42788 97.3836 14.7471 0010170 273.4778 86.5295 15.22331531 77283

Live tracking and technical data element details for SUCHAI (NORAD 42788). SUCHAI can be tracked NOW for your location showing map with azimuth and elevation plus other details from your city location.

Track the satellite on the map from your city or location and see movement details for azimuth, elevation, latitude, longitude, range, height, and movement on the map or in text.







IsCatalogInMostPopularTable: catalog: 42788, numindb: 133
Update: records affected: 1



GetName: 42788 SUCHAI

Hit Count: updated at: Wed, 14 Nov 2018 11:40:52 GMT